Location: Unspecified
(50.7693°N, 0.0000°E)
Time: 16:21:21
(UTC+00:00)

Vanguard 1 Rocket - Pass Details

Date: 21 June 2019
Orbit: 651 x 4225 km, 34.3° (Epoch: 15 July)

Event Time Altitude Azimuth Distance (km) Brightness Sun altitude
Rises 16:14:36 0° 215° (SW) 7,821 12.6 34.7°
Reaches altitude 10° 16:22:04 10° 204° (SSW) 6,228 12.1 33.6°
Maximum altitude 16:34:13 23° 162° (SSE) 3,994 10.7 31.6°
Drops below altitude 10° 16:42:15 10° 115° (ESE) 3,981 10.3 30.4°
Sets 16:45:37 0° 101° (E) 4,525 10.4 29.8°
